Weather History for Glendale Luke AFB, AZ

Change the Weather History Date:

Sunday, May 26, 2013

  Actual Average Record
Temperature  
Mean Temperature 80 °F -  
Max Temperature 94 °F 99 °F 113 °F (1951)
Min Temperature 65 °F 61 °F 49 °F (1980)
Cooling Degree Days 14    
Growing Degree Days 30 (Base 50)    
Moisture  
Dew Point 26 °F    
Average Humidity 14    
Maximum Humidity 32    
Minimum Humidity 6    
Precipitation  
Precipitation 0.00 in - - ()
Sea Level Pressure  
Sea Level Pressure 29.84 in    
Wind  
Wind Speed 7 mph (SW)    
Max Wind Speed 15 mph    
Max Gust Speed -    
Visibility 10 miles    
Events      
Averages and records for this station are not official NWS values.
T = Trace of Precipitation, MM = Missing Value Source: NWS Daily Summary

Daily Weather History Graph

Daily Weather History Graph

Search for Another Location

Airport:

Trip Planner

Search our weather history database for the weather conditions in past years. The results will help you decide how hot, cold, wet, or windy it might be!

Date:

Astronomy

May. 26, 2013 Rise Set
Actual Time 5:22 AM MST 7:31 PM MST
Civil Twilight 4:54 AM MST 7:59 PM MST
Nautical Twilight 4:20 AM MST 8:33 PM MST
Astronomical Twilight 3:43 AM MST 9:10 PM MST
Moon 9:23 PM MST (5/26) 6:55 AM MST (5/26)
Length of Visible Light 15h 04m
Length of Day
14h 08m
Waning Gibbous, 96% of the Moon is Illuminated
May 26
Waning Gibbous
May 31
Last Quarter
Jun 8
New
Jun 16
First Quarter
Jun 23
Full

Hourly Weather History & Observations

Time (MST) Temp. Dew Point Humidity Pressure Visibility Wind Dir Wind Speed Gust Speed Precip Events Conditions
12:58 AM 77.5 °F 23.5 °F 13% 29.82 in 10.0 mi SSW 9.2 mph - N/A   Clear
1:58 AM 75.6 °F 25.5 °F 16% 29.83 in 10.0 mi SSW 9.2 mph - N/A   Clear
2:58 AM 72.3 °F 28.2 °F 19% 29.82 in 10.0 mi West 1.2 mph - N/A   Clear
3:58 AM 69.4 °F 31.5 °F 24% 29.82 in 10.0 mi ENE 3.5 mph - N/A   Clear
4:58 AM 66.2 °F 29.7 °F 25% 29.83 in 10.0 mi North 3.5 mph - N/A   Clear
5:58 AM 65.1 °F 34.5 °F 32% 29.85 in 10.0 mi NE 2.3 mph - N/A   Clear
6:58 AM 70.3 °F 34.9 °F 27% 29.88 in 10.0 mi NNW 2.3 mph - N/A   Clear
7:58 AM 76.3 °F 32.7 °F 20% 29.90 in 10.0 mi NNE 4.6 mph - N/A   Clear
8:58 AM 80.8 °F 28.2 °F 15% 29.91 in 10.0 mi NE 4.6 mph - N/A   Clear
9:58 AM 84.0 °F 24.6 °F 11% 29.91 in 10.0 mi WSW 3.5 mph - N/A   Clear
10:58 AM 87.1 °F 24.6 °F 10% 29.90 in 10.0 mi SSW 8.1 mph - N/A   Partly Cloudy
11:58 AM 88.0 °F 21.9 °F 9% 29.89 in 10.0 mi Variable 4.6 mph - N/A   Mostly Cloudy
12:58 PM 89.8 °F 21.6 °F 8% 29.87 in 10.0 mi SSW 11.5 mph - N/A   Mostly Cloudy
1:58 PM 90.9 °F 22.5 °F 8% 29.86 in 10.0 mi WNW 4.6 mph - N/A   Partly Cloudy
2:58 PM 93.6 °F 21.4 °F 7% 29.83 in 10.0 mi SSW 12.7 mph - N/A   Clear
3:58 PM 93.4 °F 21.2 °F 7% 29.82 in 10.0 mi Variable 4.6 mph - N/A   Clear
4:17 PM 93.2 °F 21.2 °F 7% 29.84 in 10.0 mi SW 15.0 mph - N/A   Clear
4:33 PM 93.2 °F 21.2 °F 7% 29.83 in 10.0 mi SSW 13.8 mph - N/A   Clear
4:58 PM 94.3 °F 18.3 °F 6% 29.80 in 10.0 mi SW 13.8 mph - N/A   Clear
5:58 PM 93.6 °F 17.6 °F 6% 29.79 in 10.0 mi SW 12.7 mph - N/A   Clear
6:58 PM 92.1 °F 20.1 °F 7% 29.78 in 10.0 mi SW 6.9 mph - N/A   Clear
7:58 PM 86.2 °F 25.9 °F 11% 29.78 in 10.0 mi SW 4.6 mph - N/A   Clear
8:58 PM 82.9 °F 25.9 °F 12% 29.80 in 10.0 mi SW 2.3 mph - N/A   Clear
9:58 PM 79.3 °F 31.5 °F 18% 29.81 in 10.0 mi Calm Calm - N/A   Clear
10:58 PM 79.0 °F 30.0 °F 17% 29.81 in 10.0 mi SW 6.9 mph - N/A   Clear
11:58 PM 79.2 °F 26.1 °F 14% 29.81 in 10.0 mi WSW 4.6 mph - N/A   Clear